ORBCOMM FM 8

Satellite information

Favourite Embed

Satellite Type and Status

PAYLOADIN ORBIT

Key statistics

Satellite ORBCOMM FM 8 at a glance.

Uptime

10218

Days in orbit

Revolutions

≈ 14.5

Per day

Orbit

LEO

Low Earth Orbit

Inclination

45.0

Latest

Satellite identification and parameters

Extended collection of information and parameters for ORBCOMM FM 8.

Object identification

Identified? True

Debris? False

Object name: ORBCOMM FM 8

International designator: 1997-084A

Object number (NORAD): 25112

Object ID (CCSDS): 25112

Country: ORBITAL TELECOMMUNICATIONS SATELLITE (GLOBALSTAR) (ORB)

Current information (Y/N): Y

RCS size: MEDIUM

Orbital parameters

Period: 99.544 minutes

Inclination: 45.012 deg

SMA: 7114.942 km

Apoapsis: 741.545 km

Periapsis: 732.07 km

RAAN: 233.5154 deg

Eccentricy: 0.00066583

Argument of periapsis: 63.7402 deg

Mean anomaly: 296.4133 deg

Mean motion: 14.46590794 rev/day

Mean motion (dot): 0.00002712 rev/day2

B* drag term: 0.00078422713 1/REarth

Two-line elements (TLE)

Creation date: Dec. 12, 2025, 10:14 a.m.

Reference frame: TEME

Reference center: EARTH

Epoch: Dec. 12, 2025, 1:38 a.m. UTC

TLE line 0: 0 ORBCOMM FM 8

TLE line 1: 1 25112U 97084A 25346.06826228 .00002712 00000-0 78423-3 0 9992

TLE line 2: 2 25112 45.0120 233.5154 0006658 63.7402 296.4133 14.46590794467122

Live tracking on map

Real-time ground track for satellite ORBCOMM FM 8.

In-orbit conjunctions

There are no conjunctions computed for ORBCOMM FM 8, at the moment. Check back to stay up to date, as we update our databases every day.

Go to all conjunctions

Associated space launch

ORBCOMM FM 8 was lifted into orbit during the mission ‘Pegasus XL HAPS | Orbcomm-A1 - A8’, on board a Pegasus XL HAPS space rocket.

The launch took place on Dec. 23, 1997, 7:11 p.m. from Wallops Flight Facility.

For more information about the launch, click the button.

Launch to space Pegasus XL HAPS | Orbcomm-A1 - A8
Pegasus XL HAPS | Orbcomm-A1 - A8

Agency: N/A

Status: Launch Successful

Launch date: Dec. 23, 1997, 7:11 p.m. UTC

Rocket: Pegasus XL HAPS

Launch pad: Wallops Flight Facility

Location: Air launch to orbit

...

Latest news about this satellite

There are no fresh news available about this satellite. Check back as we update our databases every day.


Newsletter sign-up

Weekly statistics, charts and insights to help you stay on top of the space industry.